Language: 


Des rapports , des résumés tant et plus, au choix de chacun....


Données Historiques de Météogheer
Journalier Rapport pour Décembre 11, 2017 Unitée:  Métrique    Impériale   Les deux
Suivant Jour »
Journalier Hebdomadaire Mensuel Annuel Sur mesure
  Max: Min: Moyenne:
Température: 4.1 °C 0.0 °C 2 °C
Point de rosée: 4.0 °C 1.0 °C 2 °C
Humidité: 98% 0% 97%
Vent: 41.4km/h 0.0km/h 14.4km/h
Rafales: 47.9km/h - -
Vent- - SSE
Pression: 991.1 hPa 971.1 hPa -
Pluie: 19.6 mm    
Historical Graphs
 
 
Données tabulaires pour Décembre 11, 2017
Heure Température Point de rosée Pression Vent Vent Rafales Humidité Pluie Taux (Horaire) Conditions
00:00 1.7 °C 1.0 °C 981.9 hPa Calm     93% 0.0 mm
00:05 1.6 °C 1.0 °C 981.9 hPa Calm     93% 0.0 mm
00:10 1.5 °C 1.0 °C 981.9 hPa Calm     93% 0.0 mm
00:15 1.4 °C 1.0 °C 981.9 hPa Calm     94% 0.0 mm
00:20 1.4 °C 1.0 °C 981.9 hPa Calm     94% 0.0 mm
00:25 1.3 °C 1.0 °C 981.9 hPa Calm     94% 0.0 mm
00:35 1.3 °C 1.0 °C 981.9 hPa Calm     95% 0.0 mm
00:41 1.2 °C 1.0 °C 981.9 hPa Calm     95% 0.0 mm
00:45 1.1 °C 1.0 °C 981.9 hPa Calm     95% 0.0 mm
00:51 1.0 °C 1.0 °C 981.9 hPa Calm     95% 0.0 mm
01:01 1.1 °C 1.0 °C 980.9 hPa Calm     96% 0.0 mm
01:06 1.2 °C 1.0 °C 980.9 hPa Calm     97% 0.0 mm
01:21 1.4 °C 1.0 °C 980.9 hPa Calm     98% 0.0 mm
01:26 1.4 °C 1.0 °C 980.9 hPa Calm     98% 0.0 mm
01:31 1.4 °C 1.0 °C 980.9 hPa Calm     98% 0.0 mm
01:36 1.4 °C 1.0 °C 980.9 hPa Calm     98% 0.0 mm
01:41 1.5 °C 2.0 °C 979.9 hPa Calm     98% 0.0 mm
01:46 1.5 °C 2.0 °C 979.9 hPa Calm     98% 0.0 mm
01:56 1.6 °C 2.0 °C 979.9 hPa Calm     98% 0.0 mm
02:01 1.6 °C 2.0 °C 979.9 hPa Calm     98% 0.0 mm
02:06 1.7 °C 2.0 °C 979.9 hPa Calm     98% 0.0 mm
02:11 1.7 °C 2.0 °C 980.9 hPa Calm     98% 0.0 mm
02:16 1.6 °C 2.0 °C 980.9 hPa Calm     98% 0.0 mm
02:21 1.6 °C 2.0 °C 980.9 hPa Calm     98% 0.0 mm
02:26 1.7 °C 2.0 °C 980.9 hPa Calm     98% 0.0 mm
02:31 1.7 °C 2.0 °C 980.9 hPa Calm     98% 0.0 mm
02:36 1.8 °C 2.0 °C 980.9 hPa Calm     98% 0.0 mm
02:41 1.9 °C 2.0 °C 980.9 hPa Calm     98% 0.0 mm
02:46 2.0 °C 2.0 °C 980.9 hPa Calm     98% 0.0 mm
02:51 2.0 °C 2.0 °C 980.9 hPa Calm     98% 0.0 mm
02:56 2.1 °C 2.0 °C 980.9 hPa Calm     98% 0.0 mm
03:01 0.0 °C 2.0 °C 980.9 hPa Calm     0% 0.0 mm
03:12 2.3 °C 3.0 °C 980.9 hPa Calm     98% 0.0 mm
03:17 2.3 °C 3.0 °C 980.9 hPa Calm     98% 0.0 mm
03:22 2.4 °C 3.0 °C 980.9 hPa Calm     98% 0.0 mm
03:32 2.4 °C 3.0 °C 981.9 hPa Calm     98% 0.0 mm
03:42 2.3 °C 3.0 °C 980.9 hPa Calm     98% 0.0 mm
03:57 2.4 °C 3.0 °C 980.9 hPa Calm     98% 0.0 mm
04:02 2.4 °C 3.0 °C 980.9 hPa Calm     98% 0.0 mm
04:07 2.4 °C 3.0 °C 980.9 hPa Calm     98% 0.0 mm
04:12 2.4 °C 3.0 °C 978.9 hPa Calm     98% 0.0 mm
04:17 2.5 °C 3.0 °C 978.9 hPa Calm     98% 0.0 mm
04:22 2.5 °C 3.0 °C 978.9 hPa Calm     98% 0.0 mm
04:27 2.6 °C 3.0 °C 978.9 hPa Calm     98% 0.0 mm
04:32 2.6 °C 3.0 °C 978.9 hPa Calm     98% 0.0 mm
04:37 2.7 °C 3.0 °C 978.9 hPa Calm     98% 0.0 mm
04:43 2.8 °C 3.0 °C 978.9 hPa Calm     98% 0.0 mm
04:48 2.8 °C 3.0 °C 978.9 hPa Calm     98% 0.0 mm
04:58 2.9 °C 3.0 °C 977.9 hPa Calm     98% 0.0 mm
05:03 3.0 °C 3.0 °C 977.9 hPa Calm     98% 0.0 mm
05:08 3.0 °C 3.0 °C 977.9 hPa Calm     98% 0.0 mm
05:13 3.1 °C 3.0 °C 977.9 hPa Calm     98% 0.0 mm
05:18 3.1 °C 3.0 °C 977.9 hPa Calm     98% 0.0 mm
05:23 3.2 °C 3.0 °C 977.9 hPa Calm     98% 0.0 mm
05:25 3.2 °C 3.0 °C 977.9 hPa Calm     98% 0.0 mm
05:30 3.3 °C 3.0 °C 976.2 hPa Calm     98% 0.0 mm
05:35 3.3 °C 3.0 °C 976.2 hPa Calm     98% 0.0 mm
05:40 3.3 °C 3.0 °C 976.2 hPa Calm     98% 0.0 mm
05:45 3.3 °C 3.0 °C 976.9 hPa Calm     98% 0.0 mm
05:50 3.3 °C 3.0 °C 976.9 hPa Calm     98% 0.0 mm
05:55 3.3 °C 3.0 °C 976.9 hPa Calm     98% 0.0 mm
06:00 3.3 °C 3.0 °C 976.9 hPa Calm     98% 0.0 mm
06:05 3.4 °C 3.0 °C 976.9 hPa Calm     98% 0.0 mm
06:10 3.4 °C 3.0 °C 976.9 hPa Calm     98% 0.0 mm
06:15 3.4 °C 3.0 °C 976.9 hPa Calm     98% 0.0 mm
06:20 3.4 °C 3.0 °C 976.9 hPa Calm     98% 0.0 mm
06:25 3.5 °C 4.0 °C 976.2 hPa Calm     98% 0.0 mm
06:30 3.5 °C 4.0 °C 976.2 hPa Calm     98% 0.0 mm
06:35 3.5 °C 4.0 °C 976.2 hPa Calm     98% 0.0 mm
06:40 3.6 °C 4.0 °C 976.2 hPa Calm     98% 0.0 mm
06:45 3.6 °C 4.0 °C 976.2 hPa Calm     98% 0.0 mm
06:50 3.6 °C 4.0 °C 976.2 hPa Calm     98% 0.0 mm
06:55 3.6 °C 4.0 °C 976.2 hPa Calm     98% 0.3 mm
07:00 3.6 °C 4.0 °C 976.2 hPa Calm     98% 0.3 mm
07:05 3.6 °C 4.0 °C 976.2 hPa Calm     98% 0.3 mm
07:10 3.5 °C 4.0 °C 975.2 hPa Calm     98% 0.3 mm
07:16 3.5 °C 4.0 °C 975.2 hPa Calm     98% 0.5 mm
07:21 3.5 °C 4.0 °C 975.2 hPa Calm     98% 0.5 mm
07:26 3.5 °C 4.0 °C 975.2 hPa ENE 14.3 km/h 18.0 km/h 98% 1.0 mm
07:31 3.4 °C 3.0 °C 975.2 hPa ENE 19.1 km/h 19.1 km/h 98% 1.3 mm
07:41 3.3 °C 3.0 °C 975.2 hPa NE 19.1 km/h 19.1 km/h 98% 1.5 mm
07:46 3.3 °C 3.0 °C 975.2 hPa NE 19.1 km/h 19.1 km/h 98% 1.8 mm
08:01 3.1 °C 3.0 °C 975.2 hPa ENE 17.2 km/h 24.8 km/h 98% 2.3 mm
08:06 3.0 °C 3.0 °C 975.2 hPa ENE 16.3 km/h 20.9 km/h 98% 2.3 mm
08:11 3.0 °C 3.0 °C 975.2 hPa ENE 20.1 km/h 24.8 km/h 98% 2.5 mm
08:16 3.0 °C 3.0 °C 975.2 hPa ENE 19.5 km/h 28.0 km/h 98% 2.3 mm
08:21 2.9 °C 3.0 °C 975.2 hPa ENE 19.1 km/h 32.0 km/h 98% 2.3 mm
08:36 2.7 °C 3.0 °C 975.2 hPa NE 16.3 km/h 27.4 km/h 98% 2.3 mm
08:41 2.6 °C 3.0 °C 975.2 hPa ENE 22.4 km/h 27.0 km/h 98% 2.5 mm
08:46 2.3 °C 3.0 °C 975.2 hPa ENE 21.6 km/h 27.0 km/h 98% 2.5 mm
08:51 2.1 °C 2.0 °C 975.2 hPa NE 23.0 km/h 37.5 km/h 98% 2.5 mm
08:56 1.9 °C 2.0 °C 975.2 hPa NE 19.1 km/h 37.5 km/h 98% 2.8 mm
09:01 1.6 °C 2.0 °C 975.2 hPa NE 26.7 km/h 39.3 km/h 98% 3.0 mm
09:07 1.5 °C 2.0 °C 975.2 hPa NE 25.9 km/h 39.3 km/h 98% 3.0 mm
09:17 1.2 °C 1.0 °C 975.2 hPa NE 19.1 km/h 30.6 km/h 98% 3.0 mm
09:22 1.1 °C 1.0 °C 975.2 hPa ENE 17.2 km/h 28.0 km/h 98% 3.3 mm
09:27 1.1 °C 1.0 °C 975.2 hPa ENE 22.7 km/h 27.7 km/h 98% 3.0 mm
09:37 1.0 °C 1.0 °C 975.2 hPa NE 16.9 km/h 25.9 km/h 98% 2.8 mm
09:42 0.9 °C 1.0 °C 975.2 hPa ENE 21.6 km/h 30.9 km/h 98% 2.5 mm
09:47 0.9 °C 1.0 °C 975.2 hPa ENE 16.6 km/h 30.9 km/h 98% 1.8 mm
09:52 0.9 °C 1.0 °C 975.2 hPa ENE 15.4 km/h 24.8 km/h 98% 1.5 mm
09:54 0.9 °C 1.0 °C 975.2 hPa ENE 15.8 km/h 24.8 km/h 98% 1.5 mm
10:04 0.9 °C 1.0 °C 974.2 hPa ENE 21.2 km/h 29.9 km/h 98% 0.5 mm
10:09 0.9 °C 1.0 °C 974.2 hPa ENE 20.6 km/h 32.8 km/h 98% 0.3 mm
10:14 0.9 °C 1.0 °C 975.2 hPa NE 31.7 km/h 32.8 km/h 98% 0.3 mm
10:19 0.9 °C 1.0 °C 975.2 hPa NE 21.9 km/h 31.7 km/h 98% 0.3 mm
10:25 1.0 °C 1.0 °C 975.2 hPa NNE 38.1 km/h 38.1 km/h 98% 0.0 mm
10:30 1.0 °C 1.0 °C 972.1 hPa East 16.6 km/h 38.5 km/h 98% 0.0 mm
10:35 1.0 °C 1.0 °C 972.1 hPa NE 41.0 km/h 41.0 km/h 98% 0.0 mm
10:50 1.0 °C 1.0 °C 973.1 hPa NE 38.1 km/h 47.9 km/h 98% 0.3 mm
10:55 1.1 °C 1.0 °C 973.1 hPa ENE 28.5 km/h 47.9 km/h 98% 0.5 mm
11:00 1.1 °C 1.0 °C 973.1 hPa NE 30.9 km/h 45.7 km/h 98% 0.5 mm
11:05 1.1 °C 1.0 °C 973.1 hPa NE 35.6 km/h 45.7 km/h 98% 1.0 mm
11:10 1.1 °C 1.0 °C 973.1 hPa NE 22.7 km/h 42.8 km/h 98% 1.0 mm
11:15 1.1 °C 1.0 °C 974.2 hPa ENE 21.2 km/h 42.8 km/h 98% 1.3 mm
11:20 1.1 °C 1.0 °C 974.2 hPa ENE 20.6 km/h 30.6 km/h 98% 1.3 mm
11:25 1.1 °C 1.0 °C 974.2 hPa East 20.6 km/h 30.6 km/h 98% 1.3 mm
11:30 1.2 °C 1.0 °C 973.1 hPa ENE 21.2 km/h 32.0 km/h 98% 1.3 mm
11:35 1.2 °C 1.0 °C 973.1 hPa NE 26.2 km/h 32.0 km/h 98% 1.5 mm
11:40 1.1 °C 1.0 °C 973.1 hPa ENE 23.8 km/h 39.6 km/h 98% 1.5 mm
11:45 1.1 °C 1.0 °C 973.1 hPa ENE 21.2 km/h 39.6 km/h 98% 1.3 mm
11:50 1.1 °C 1.0 °C 973.1 hPa ENE 25.9 km/h 32.0 km/h 98% 1.5 mm
11:55 1.2 °C 1.0 °C 973.1 hPa ENE 19.8 km/h 35.6 km/h 98% 1.3 mm
12:00 1.2 °C 1.0 °C 973.1 hPa ENE 23.8 km/h 35.6 km/h 98% 1.3 mm
12:05 1.2 °C 1.0 °C 973.1 hPa ENE 27.0 km/h 35.2 km/h 98% 0.8 mm
12:10 1.1 °C 1.0 °C 972.1 hPa NE 27.0 km/h 35.2 km/h 98% 1.3 mm
12:15 1.1 °C 1.0 °C 972.1 hPa NNE 20.6 km/h 29.1 km/h 98% 0.8 mm
12:20 1.1 °C 1.0 °C 972.1 hPa NE 24.8 km/h 27.7 km/h 98% 0.8 mm
12:25 1.1 °C 1.0 °C 973.1 hPa NE 19.8 km/h 24.8 km/h 98% 0.8 mm
12:30 1.1 °C 1.0 °C 973.1 hPa NE 27.7 km/h 33.1 km/h 98% 1.3 mm
12:35 1.2 °C 1.0 °C 973.1 hPa NE 31.4 km/h 33.1 km/h 98% 1.3 mm
12:40 1.2 °C 1.0 °C 972.1 hPa NE 15.8 km/h 32.0 km/h 98% 1.3 mm
12:50 1.2 °C 1.0 °C 972.1 hPa NE 20.6 km/h 37.0 km/h 98% 1.3 mm
12:55 1.1 °C 1.0 °C 972.1 hPa NE 30.2 km/h 37.0 km/h 98% 1.3 mm
13:01 1.1 °C 1.0 °C 972.1 hPa NE 20.6 km/h 30.2 km/h 98% 1.5 mm
13:06 1.1 °C 1.0 °C 972.1 hPa NE 21.2 km/h 39.6 km/h 98% 1.5 mm
13:11 1.1 °C 1.0 °C 971.1 hPa ENE 27.7 km/h 39.6 km/h 98% 1.3 mm
13:16 1.1 °C 1.0 °C 971.1 hPa NE 32.8 km/h 32.8 km/h 98% 1.3 mm
13:21 1.2 °C 1.0 °C 971.1 hPa NE 17.2 km/h 40.4 km/h 98% 1.5 mm
13:26 1.2 °C 1.0 °C 971.1 hPa NE 23.8 km/h 40.4 km/h 98% 1.3 mm
13:31 1.2 °C 1.0 °C 971.1 hPa ENE 23.8 km/h 32.0 km/h 98% 1.5 mm
13:36 1.2 °C 1.0 °C 971.1 hPa NE 25.3 km/h 32.0 km/h 98% 1.3 mm
13:41 1.2 °C 1.0 °C 972.1 hPa ENE 16.6 km/h 31.7 km/h 98% 1.5 mm
13:46 1.2 °C 1.0 °C 972.1 hPa ENE 27.7 km/h 38.1 km/h 98% 1.3 mm
13:51 1.2 °C 1.0 °C 972.1 hPa NE 41.4 km/h 41.4 km/h 98% 1.3 mm
13:56 1.2 °C 1.0 °C 971.1 hPa ENE 28.5 km/h 41.4 km/h 98% 1.3 mm
14:01 1.1 °C 1.0 °C 971.1 hPa NE 32.8 km/h 40.7 km/h 98% 0.8 mm
14:06 1.1 °C 1.0 °C 971.1 hPa NE 31.4 km/h 40.7 km/h 98% 0.8 mm
14:11 1.1 °C 1.0 °C 971.1 hPa NNE 32.0 km/h 40.4 km/h 98% 0.8 mm
14:16 1.1 °C 1.0 °C 971.1 hPa NE 25.6 km/h 40.4 km/h 98% 0.8 mm
14:22 1.1 °C 1.0 °C 971.1 hPa NE 20.6 km/h 42.5 km/h 98% 0.5 mm
14:27 1.1 °C 1.0 °C 972.1 hPa NE 31.7 km/h 42.5 km/h 98% 0.3 mm
14:32 1.1 °C 1.0 °C 972.1 hPa NE 37.5 km/h 39.6 km/h 98% 0.3 mm
14:37 1.1 °C 1.0 °C 972.1 hPa NNE 36.7 km/h 39.6 km/h 98% 0.0 mm
14:42 1.1 °C 1.0 °C 972.1 hPa NNE 17.2 km/h 36.7 km/h 98% 0.0 mm
14:47 1.1 °C 1.0 °C 972.1 hPa NE 30.9 km/h 36.7 km/h 98% 0.0 mm
14:52 1.0 °C 1.0 °C 972.1 hPa NE 17.2 km/h 32.0 km/h 98% 0.0 mm
14:57 1.0 °C 1.0 °C 972.1 hPa NNE 34.6 km/h 34.6 km/h 98% 0.0 mm
15:02 1.0 °C 1.0 °C 972.1 hPa NE 20.9 km/h 38.9 km/h 98% 0.0 mm
15:07 1.0 °C 1.0 °C 972.1 hPa NE 27.7 km/h 38.9 km/h 98% 0.0 mm
15:08 1.0 °C 1.0 °C 972.1 hPa NNE 27.4 km/h 37.8 km/h 98% 0.0 mm
15:13 0.9 °C 1.0 °C 973.1 hPa NNE 41.0 km/h 41.0 km/h 98% 0.0 mm
15:18 0.9 °C 1.0 °C 973.1 hPa NE 29.9 km/h 41.0 km/h 98% 0.0 mm
15:28 0.9 °C 1.0 °C 973.1 hPa North 27.7 km/h 32.8 km/h 98% 0.0 mm
15:38 0.9 °C 1.0 °C 973.1 hPa NNW 31.4 km/h 37.0 km/h 98% 0.0 mm
15:43 0.9 °C 1.0 °C 973.1 hPa North 27.7 km/h 37.0 km/h 98% 0.0 mm
15:48 0.9 °C 1.0 °C 973.1 hPa NE 26.2 km/h 43.1 km/h 98% 0.0 mm
15:53 1.0 °C 1.0 °C 973.1 hPa North 28.5 km/h 43.1 km/h 98% 0.0 mm
15:58 1.0 °C 1.0 °C 973.1 hPa NNE 37.8 km/h 41.7 km/h 98% 0.0 mm
16:03 1.0 °C 1.0 °C 973.1 hPa ENE 36.7 km/h 41.4 km/h 98% 0.0 mm
16:08 1.0 °C 1.0 °C 973.1 hPa NE 28.5 km/h 41.4 km/h 98% 0.0 mm
16:14 1.0 °C 1.0 °C 974.2 hPa NNE 41.0 km/h 41.0 km/h 98% 3.0 mm
16:19 1.0 °C 1.0 °C 974.2 hPa NE 25.3 km/h 41.0 km/h 98% 3.0 mm
16:24 1.0 °C 1.0 °C 974.2 hPa NE 37.5 km/h 41.0 km/h 98% 3.0 mm
16:29 1.0 °C 1.0 °C 975.2 hPa NNE 22.7 km/h 37.5 km/h 98% 3.0 mm
16:34 1.0 °C 1.0 °C 975.2 hPa North 16.6 km/h 36.0 km/h 98% 3.0 mm
16:39 1.0 °C 1.0 °C 975.2 hPa ENE 19.5 km/h 36.0 km/h 98% 3.0 mm
16:44 1.0 °C 1.0 °C 975.2 hPa NNE 23.8 km/h 40.7 km/h 98% 3.0 mm
16:50 1.0 °C 1.0 °C 975.2 hPa NE 36.7 km/h 40.7 km/h 98% 3.0 mm
16:55 1.0 °C 1.0 °C 975.2 hPa North 23.3 km/h 39.6 km/h 98% 3.0 mm
17:00 1.0 °C 1.0 °C 976.2 hPa NNE 31.4 km/h 39.6 km/h 98% 3.0 mm
17:05 1.0 °C 1.0 °C 976.2 hPa North 23.8 km/h 39.3 km/h 98% 3.0 mm
17:15 1.0 °C 1.0 °C 977.9 hPa NNE 16.9 km/h 40.7 km/h 98% 0.0 mm
17:20 1.1 °C 1.0 °C 977.9 hPa North 10.5 km/h 31.7 km/h 98% 0.5 mm
17:25 1.1 °C 1.0 °C 977.9 hPa North 24.5 km/h 35.2 km/h 98% 0.5 mm
17:35 1.1 °C 1.0 °C 976.9 hPa NNE 36.4 km/h 40.4 km/h 98% 0.8 mm
17:40 1.2 °C 1.0 °C 976.9 hPa North 21.9 km/h 40.7 km/h 98% 0.8 mm
17:45 1.2 °C 1.0 °C 977.9 hPa North 32.8 km/h 40.7 km/h 98% 0.8 mm
17:50 1.3 °C 1.0 °C 977.9 hPa NNE 28.5 km/h 35.2 km/h 98% 1.3 mm
17:55 1.3 °C 1.0 °C 977.9 hPa North 31.4 km/h 31.7 km/h 98% 1.3 mm
18:00 1.4 °C 1.0 °C 977.9 hPa North 21.2 km/h 31.7 km/h 98% 1.5 mm
18:05 1.4 °C 1.0 °C 977.9 hPa NNW 31.4 km/h 41.0 km/h 98% 1.8 mm
18:11 1.5 °C 2.0 °C 978.9 hPa NW 21.6 km/h 41.0 km/h 98% 1.8 mm
18:16 1.5 °C 2.0 °C 978.9 hPa North 13.0 km/h 31.4 km/h 98% 1.8 mm
18:21 1.6 °C 2.0 °C 978.9 hPa North 36.0 km/h 36.0 km/h 98% 1.5 mm
18:26 1.6 °C 2.0 °C 979.9 hPa North 35.6 km/h 36.0 km/h 98% 1.5 mm
18:31 1.7 °C 2.0 °C 979.9 hPa North 20.1 km/h 35.6 km/h 98% 1.5 mm
18:36 1.8 °C 2.0 °C 979.9 hPa North 24.8 km/h 35.6 km/h 98% 1.5 mm
18:41 1.9 °C 2.0 °C 980.9 hPa North 25.9 km/h 35.6 km/h 98% 1.5 mm
18:46 1.9 °C 2.0 °C 980.9 hPa NNE 28.5 km/h 38.5 km/h 98% 1.8 mm
18:51 2.0 °C 2.0 °C 980.9 hPa North 27.7 km/h 38.5 km/h 98% 1.5 mm
18:56 2.0 °C 2.0 °C 980.9 hPa NNE 20.6 km/h 32.0 km/h 98% 1.8 mm
19:01 2.0 °C 2.0 °C 980.9 hPa North 37.0 km/h 37.0 km/h 98% 1.5 mm
19:06 2.1 °C 2.0 °C 980.9 hPa NE 13.7 km/h 37.0 km/h 98% 1.3 mm
19:11 2.1 °C 2.0 °C 980.9 hPa NNW 20.1 km/h 37.5 km/h 98% 1.5 mm
19:16 2.1 °C 2.0 °C 980.9 hPa NNE 19.8 km/h 37.5 km/h 98% 1.3 mm
19:21 2.1 °C 2.0 °C 980.9 hPa North 31.7 km/h 31.7 km/h 98% 1.3 mm
19:26 2.1 °C 2.0 °C 981.9 hPa North 16.6 km/h 41.0 km/h 98% 1.3 mm
19:31 2.2 °C 2.0 °C 981.9 hPa NNE 17.7 km/h 41.0 km/h 98% 1.3 mm
19:36 2.2 °C 2.0 °C 981.9 hPa NNW 27.7 km/h 31.4 km/h 98% 1.3 mm
19:41 2.3 °C 3.0 °C 983.0 hPa North 13.0 km/h 31.4 km/h 98% 1.3 mm
19:52 2.3 °C 3.0 °C 983.0 hPa NNW 20.1 km/h 23.8 km/h 98% 1.3 mm
19:57 2.3 °C 3.0 °C 983.0 hPa NNE 18.0 km/h 28.0 km/h 98% 1.0 mm
20:02 2.3 °C 3.0 °C 983.0 hPa North 13.7 km/h 29.1 km/h 98% 1.0 mm
20:07 2.3 °C 3.0 °C 983.0 hPa North 14.0 km/h 29.1 km/h 98% 1.0 mm
20:12 2.3 °C 3.0 °C 983.0 hPa North 17.2 km/h 25.9 km/h 98% 0.8 mm
20:17 2.3 °C 3.0 °C 983.0 hPa North 13.0 km/h 25.9 km/h 98% 1.0 mm
20:27 2.3 °C 3.0 °C 984.0 hPa North 13.0 km/h 23.8 km/h 98% 0.8 mm
20:30 2.3 °C 3.0 °C 984.0 hPa North 16.9 km/h 23.8 km/h 98% 0.8 mm
20:35 2.4 °C 3.0 °C 984.0 hPa North 13.7 km/h 20.9 km/h 98% 0.8 mm
20:45 2.4 °C 3.0 °C 985.0 hPa NNW 4.7 km/h 23.0 km/h 98% 0.3 mm
20:50 2.4 °C 3.0 °C 985.0 hPa North 13.0 km/h 20.1 km/h 98% 0.3 mm
20:55 2.4 °C 3.0 °C 985.0 hPa NNE 19.8 km/h 20.1 km/h 98% 0.5 mm
21:00 2.4 °C 3.0 °C 985.0 hPa NNE 9.3 km/h 19.8 km/h 98% 0.5 mm
21:05 2.6 °C 3.0 °C 985.0 hPa North 9.0 km/h 19.8 km/h 98% 0.5 mm
21:10 2.8 °C 3.0 °C 987.0 hPa North 8.7 km/h 14.0 km/h 98% 0.5 mm
21:15 3.2 °C 3.0 °C 987.0 hPa NNE 9.7 km/h 14.0 km/h 98% 0.5 mm
21:20 3.2 °C 3.0 °C 987.0 hPa North 12.2 km/h 17.2 km/h 98% 0.3 mm
21:26 3.4 °C 2.0 °C 987.0 hPa NNW 12.2 km/h 17.2 km/h 92% 0.5 mm
21:36 3.7 °C 2.0 °C 987.0 hPa NNW 6.1 km/h 16.6 km/h 90% 0.5 mm
21:41 3.6 °C 2.0 °C 987.0 hPa WNW 5.8 km/h 13.7 km/h 87% 0.5 mm
21:46 3.6 °C 2.0 °C 987.0 hPa NNW 7.6 km/h 13.7 km/h 87% 0.5 mm
21:51 3.8 °C 2.0 °C 987.0 hPa WNW 4.7 km/h 12.6 km/h 85% 0.3 mm
21:56 4.1 °C 2.0 °C 987.0 hPa NNW 6.9 km/h 12.6 km/h 85% 0.3 mm
22:01 3.7 °C 1.0 °C 987.0 hPa NNW 5.0 km/h 12.6 km/h 84% 0.3 mm
22:06 3.1 °C 1.0 °C 987.0 hPa NW 1.4 km/h 12.2 km/h 88% 0.3 mm
22:11 2.8 °C 2.0 °C 988.0 hPa WNW 1.8 km/h 6.9 km/h 91% 0.3 mm
22:17 2.7 °C 2.0 °C 988.0 hPa Calm   6.9 km/h 92% 0.3 mm
22:21 2.7 °C 2.0 °C 988.0 hPa NNW 9.0 km/h 20.9 km/h 94% 0.3 mm
22:26 2.7 °C 3.0 °C 989.1 hPa NW 8.7 km/h 23.0 km/h 96% 0.3 mm
22:31 2.6 °C 3.0 °C 989.1 hPa NW 1.8 km/h 23.0 km/h 96% 0.3 mm
22:32 2.6 °C 3.0 °C 989.1 hPa WNW 2.6 km/h 23.0 km/h 96% 0.3 mm
22:37 2.6 °C 3.0 °C 989.1 hPa Calm   9.7 km/h 97% 0.3 mm
22:42 2.6 °C 3.0 °C 988.0 hPa NNW 5.5 km/h 7.9 km/h 97% 0.3 mm
22:47 2.5 °C 3.0 °C 988.0 hPa West 2.1 km/h 7.9 km/h 98% 0.3 mm
22:52 2.5 °C 3.0 °C 988.0 hPa Calm   13.0 km/h 98% 0.3 mm
22:57 2.5 °C 3.0 °C 990.1 hPa NNW 5.0 km/h 13.0 km/h 98% 0.3 mm
23:02 2.5 °C 3.0 °C 990.1 hPa NW 6.4 km/h 12.6 km/h 98% 0.3 mm
23:07 2.6 °C 3.0 °C 990.1 hPa WNW 11.6 km/h 17.2 km/h 98% 0.3 mm
23:12 2.7 °C 3.0 °C 991.1 hPa NW 11.9 km/h 17.2 km/h 98% 0.3 mm
23:17 2.7 °C 3.0 °C 991.1 hPa NNW 14.0 km/h 17.2 km/h 98% 0.5 mm
23:22 2.8 °C 3.0 °C 991.1 hPa North 6.4 km/h 16.6 km/h 98% 0.3 mm
23:24 2.8 °C 3.0 °C 991.1 hPa NNW 5.5 km/h 14.0 km/h 98% 0.3 mm
23:29 2.8 °C 3.0 °C 991.1 hPa Calm   16.6 km/h 98% 0.3 mm
23:35 2.8 °C 3.0 °C 991.1 hPa WNW 7.6 km/h 16.6 km/h 98% 0.3 mm
23:40 2.7 °C 3.0 °C 991.1 hPa NNW 2.6 km/h 9.3 km/h 98% 0.5 mm
23:45 2.7 °C 3.0 °C 991.1 hPa WSW 5.0 km/h 9.3 km/h 98% 0.5 mm
23:50 2.6 °C 3.0 °C 991.1 hPa West 5.8 km/h 10.5 km/h 98% 0.5 mm
23:55 2.5 °C 3.0 °C 991.1 hPa West 6.1 km/h 10.5 km/h 98% 0.5 mm
Données Historique de Météo Turbie

Mise a jour : 25/05/2018 07:04:14
Généré par Cumulus 1.9.4 (1099)